sat.trackr.live / text

‹ back to catalog

SHIJIAN-6 05A (SJ-6 05A)

NORAD 49961 · 2021-122A

PAYLOAD ACTIVE UNKNOWN

§ Identity

Operator
Country
PRC
Launch date
2021-12-10
Launch site
JSC
Launch vehicle
Mass (kg)
RCS (m²)

External: N2YO · Heavens-Above · Gunter

§ Orbital elements

Epoch: 2026-09-20T03:24:42.245568Z

Period
96.01 min
Inclination
97.4229°
Eccentricity
0.0002533
Mean motion
14.99774427 rev/d
Perigee alt
565.8 km
Apogee alt
569.4 km
Semi-major
6,945.7 km
B*
4.7315e-5
RAAN
227.1814°
Arg perigee
41.9393°
Mean anomaly
318.2024°
Rev number
26,298

§ Raw data

SHIJIAN-6 05A (SJ-6 05A)1 49961U 21122A   26263.14215562  .00000530  00000+0  47315-4 0  99932 49961  97.4229 227.1814 0002533  41.9393 318.2024 14.99774427262982

JSON: /api/v1/satellites/49961 · /tle

For live sub-satellite position, see the globe view (requires WebGL).

§ Visibility from observer

Set your observer location to see the next 7 days of passes ≥ 10°. The values pass through the URL so the page stays shareable.

No JS? Fill the form by hand. The geolocation button needs JavaScript.